Location: Ulm
(48.3980°N, 9.9777°E)
Time: 03:23:52
(UTC+02:00)

ISS - Pass Details

Date: 04 January 2018
Orbit: 402 x 408 km, 51.6° (Epoch: 22 July)

Event Time Altitude Azimuth Distance (km) Brightness Sun altitude
Exits shadow 05:27:43 24° 65° (ENE) 909 -1.5 -26.1°
Drops below altitude 10° 05:29:13 10° 68° (ENE) 1,502 -0.2 -25.9°
Sets 05:31:20 0° 69° (ENE) 2,371 1.1 -25.5°
